Litchfield, MN

9:04 PM CST on December 05, 2016 (GMT -0600)
Litchfield Municipal

Weather History for KLJF - December, 2012

Change the Weather History Date:

Wednesday, December 26, 2012

  Actual Average Record
Temperature  
Mean Temperature 6 °F -  
Max Temperature 12 °F 20 °F 48 °F (2011)
Min Temperature 0 °F 2 °F -24 °F (1990)
Degree Days  
Heating Degree Days 59    
Moisture  
Dew Point 1 °F    
Average Humidity 81    
Maximum Humidity 92    
Minimum Humidity 67    
Precipitation  
Precipitation 0.00 in - - ()
Sea Level Pressure  
Sea Level Pressure 30.29 in    
Wind  
Wind Speed 1 mph (North)    
Max Wind Speed 5 mph    
Max Gust Speed -    
Visibility 10 miles    
Events      
Averages and records for this station are not official NWS values.
T = Trace of Precipitation, MM = Missing Value Source: NWS Daily Summary

Daily Weather History Graph

Daily Weather History Graph

Search for Another Location

Airport or City:

Trip Planner

Search our weather history database for the weather conditions in past years. The results will help you decide how hot, cold, wet, or windy it might be!

Date:

Astronomy

Dec. 26, 2012 Rise Set
Actual Time 7:55 AM CST 4:42 PM CST
Civil Twilight 7:21 AM CST 5:16 PM CST
Nautical Twilight 6:44 AM CST 5:53 PM CST
Astronomical Twilight 6:08 AM CST 6:29 PM CST
Moon 3:37 PM CST (12/26) 6:18 AM CST (12/26)
Length of Visible Light 9h 54m
Length of Day
8h 46m
Waxing Gibbous, 97% of the Moon is Illuminated
Dec 26
Waxing Gibbous
Dec 28
Full
Jan 4
Last Quarter
Jan 11
New
Jan 18
First Quarter

Hourly Weather History & Observations

Time (CST) Temp. Windchill Dew Point Humidity Pressure Visibility Wind Dir Wind Speed Gust Speed Precip Events Conditions
12:13 AM -0.4 °F - -4.0 °F 85% 30.39 in 10.0 mi Calm Calm - N/A   Clear
12:33 AM -0.4 °F - -4.0 °F 85% 30.38 in 10.0 mi Calm Calm - N/A   Clear
1:13 AM -0.4 °F -8.3 °F -4.0 °F 85% 30.37 in 10.0 mi NW 3.5 mph - N/A   Clear
1:33 AM -0.4 °F -10.4 °F -4.0 °F 85% 30.37 in 10.0 mi NNW 4.6 mph - N/A   Clear
1:53 AM -0.4 °F -10.4 °F -4.0 °F 85% 30.37 in 10.0 mi North 4.6 mph - N/A   Clear
2:13 AM -0.4 °F -10.4 °F -4.0 °F 85% 30.38 in 10.0 mi NNW 4.6 mph - N/A   Clear
2:33 AM 1.4 °F -8.3 °F -2.2 °F 85% 30.38 in 10.0 mi NNW 4.6 mph - N/A   Clear
2:53 AM 1.4 °F - -2.2 °F 85% 30.38 in 10.0 mi Calm Calm - N/A   Clear
3:13 AM 1.4 °F - -2.2 °F 85% 30.37 in 10.0 mi Calm Calm - N/A   Clear
3:33 AM 1.4 °F - -2.2 °F 85% 30.37 in 10.0 mi Calm Calm - N/A   Scattered Clouds
3:53 AM 1.4 °F - -2.2 °F 85% 30.37 in 10.0 mi Calm Calm - N/A   Scattered Clouds
4:13 AM 1.4 °F - -2.2 °F 85% 30.36 in 10.0 mi Calm Calm - N/A   Clear
4:33 AM 1.4 °F - -2.2 °F 85% 30.35 in 10.0 mi Calm Calm - N/A   Clear
4:53 AM 1.4 °F - -2.2 °F 85% 30.35 in 10.0 mi Calm Calm - N/A   Clear
5:13 AM 1.4 °F - -2.2 °F 85% 30.34 in 10.0 mi Calm Calm - N/A   Clear
5:33 AM 3.2 °F - -2.2 °F 78% 30.34 in 10.0 mi Calm Calm - N/A   Clear
5:53 AM 3.2 °F -4.2 °F -0.4 °F 85% 30.33 in 10.0 mi North 3.5 mph - N/A   Clear
6:13 AM 3.2 °F -6.2 °F -0.4 °F 85% 30.33 in 10.0 mi North 4.6 mph - N/A   Scattered Clouds
6:33 AM 3.2 °F -4.2 °F -0.4 °F 85% 30.33 in 10.0 mi North 3.5 mph - N/A   Overcast
6:53 AM 3.2 °F -6.2 °F -0.4 °F 85% 30.33 in 10.0 mi North 4.6 mph - N/A   Mostly Cloudy
7:13 AM 3.2 °F -4.2 °F -0.4 °F 85% 30.33 in 10.0 mi North 3.5 mph - N/A   Scattered Clouds
7:33 AM 3.2 °F -4.2 °F -0.4 °F 85% 30.33 in 10.0 mi North 3.5 mph - N/A   Mostly Cloudy
7:53 AM 3.2 °F -4.2 °F -0.4 °F 85% 30.33 in 10.0 mi North 3.5 mph - N/A   Overcast
8:14 AM 3.2 °F - -0.4 °F 85% 30.32 in 10.0 mi Calm Calm - N/A   Overcast
8:33 AM 3.2 °F - -0.4 °F 85% 30.31 in 10.0 mi Calm Calm - N/A   Scattered Clouds
8:53 AM 3.2 °F - -0.4 °F 85% 30.31 in 10.0 mi Calm Calm - N/A   Clear
9:14 AM 3.2 °F - -0.4 °F 85% 30.31 in 10.0 mi Calm Calm - N/A   Scattered Clouds
9:33 AM 3.2 °F - -0.4 °F 85% 30.31 in 10.0 mi Calm Calm - N/A   Clear
9:53 AM 3.2 °F -6.2 °F -0.4 °F 85% 30.31 in 10.0 mi NNE 4.6 mph - N/A   Clear
10:13 AM 5.0 °F -4.1 °F -0.4 °F 78% 30.31 in 10.0 mi NNE 4.6 mph - N/A   Clear
10:33 AM 6.8 °F -0.1 °F 1.4 °F 79% 30.31 in 10.0 mi NNE 3.5 mph - N/A   Clear
10:53 AM 6.8 °F - 1.4 °F 79% 30.31 in 10.0 mi Calm Calm - N/A   Clear
11:13 AM 6.8 °F - 1.4 °F 79% 30.31 in 10.0 mi Calm Calm - N/A   Clear
11:33 AM 6.8 °F - 1.4 °F 79% 30.30 in 10.0 mi Calm Calm - N/A   Clear
11:53 AM 8.6 °F - 1.4 °F 73% 30.30 in 10.0 mi Calm Calm - N/A   Clear
12:33 PM 8.6 °F - 1.4 °F 73% 30.28 in 10.0 mi Calm Calm - N/A   Clear
12:53 PM 10.4 °F - 3.2 °F 73% 30.28 in 10.0 mi Calm Calm - N/A   Clear
1:13 PM 10.4 °F - 3.2 °F 73% 30.27 in 10.0 mi Calm Calm - N/A   Scattered Clouds
1:33 PM 10.4 °F 4.0 °F 3.2 °F 73% 30.27 in 10.0 mi NNE 3.5 mph - N/A   Overcast
1:53 PM 10.4 °F 4.0 °F 3.2 °F 73% 30.27 in 10.0 mi NNE 3.5 mph - N/A   Overcast
2:13 PM 10.4 °F - 3.2 °F 73% 30.27 in 10.0 mi Calm Calm - N/A   Overcast
2:33 PM 10.4 °F 4.0 °F 3.2 °F 73% 30.27 in 10.0 mi North 3.5 mph - N/A   Overcast
2:53 PM 10.4 °F 4.0 °F 3.2 °F 73% 30.26 in 10.0 mi North 3.5 mph - N/A   Overcast
3:13 PM 12.2 °F 6.1 °F 3.2 °F 67% 30.26 in 10.0 mi NNE 3.5 mph - N/A   Overcast
3:33 PM 12.2 °F 6.1 °F 3.2 °F 67% 30.25 in 10.0 mi NNE 3.5 mph - N/A   Mostly Cloudy
3:53 PM 12.2 °F 6.1 °F 3.2 °F 67% 30.26 in 10.0 mi NNE 3.5 mph - N/A   Scattered Clouds
4:13 PM 10.4 °F - 3.2 °F 73% 30.26 in 10.0 mi Calm Calm - N/A   Clear
4:33 PM 10.4 °F - 3.2 °F 73% 30.26 in 10.0 mi Calm Calm - N/A   Clear
4:53 PM 10.4 °F - 3.2 °F 73% 30.26 in 10.0 mi Calm Calm - N/A   Clear
5:13 PM 8.6 °F - 3.2 °F 79% 30.25 in 10.0 mi Calm Calm - N/A   Clear
5:33 PM 8.6 °F - 3.2 °F 79% 30.25 in 10.0 mi Calm Calm - N/A   Unknown
5:53 PM 8.6 °F - 1.4 °F 73% 30.25 in 10.0 mi Calm Calm - N/A   Unknown
6:13 PM 6.8 °F - 1.4 °F 79% 30.25 in 10.0 mi Calm Calm - N/A   Clear
6:33 PM 8.6 °F - 3.2 °F 79% 30.25 in 10.0 mi Calm Calm - N/A   Clear
6:53 PM 6.8 °F - 3.2 °F 85% 30.25 in 10.0 mi Calm Calm - N/A   Scattered Clouds
7:13 PM 6.8 °F - 3.2 °F 85% 30.25 in 10.0 mi Calm Calm - N/A   Mostly Cloudy
7:33 PM 8.6 °F - 3.2 °F 79% 30.25 in 10.0 mi Calm Calm - N/A   Overcast
7:53 PM 8.6 °F - 3.2 °F 79% 30.24 in 10.0 mi Calm Calm - N/A   Overcast
8:13 PM 8.6 °F 2.0 °F 5.0 °F 85% 30.24 in 10.0 mi NE 3.5 mph - N/A   Overcast
8:33 PM 8.6 °F 2.0 °F 5.0 °F 85% 30.24 in 10.0 mi ENE 3.5 mph - N/A   Overcast
8:53 PM 8.6 °F - 5.0 °F 85% 30.24 in 10.0 mi Calm Calm - N/A   Overcast
9:13 PM 8.6 °F - 5.0 °F 85% 30.24 in 10.0 mi Calm Calm - N/A   Overcast
9:33 PM 8.6 °F - 3.2 °F 79% 30.24 in 10.0 mi Calm Calm - N/A   Overcast
9:53 PM 8.6 °F - 3.2 °F 79% 30.23 in 10.0 mi Calm Calm - N/A   Mostly Cloudy
10:13 PM 5.0 °F - 3.2 °F 92% 30.22 in 10.0 mi Calm Calm - N/A   Scattered Clouds
10:33 PM 6.8 °F - 3.2 °F 85% 30.22 in 10.0 mi Calm Calm - N/A   Clear
10:53 PM 6.8 °F - 3.2 °F 85% 30.22 in 10.0 mi Calm Calm - N/A   Clear
11:13 PM 3.2 °F - 1.4 °F 92% 30.22 in 10.0 mi Calm Calm - N/A   Clear
11:33 PM 3.2 °F - 1.4 °F 92% 30.22 in 10.0 mi Calm Calm - N/A   Clear
11:53 PM 5.0 °F - 3.2 °F 92% 30.22 in 10.0 mi Calm Calm - N/A   Clear